Precipitable_Water
2.05 2.13 2.13 2.18 2.19 2.15 2.08 2.09 1.89 1.64 1.65 1.66 1.62 1.73 1.77 1.76 1.70 1.55 1.50 1.49 1.41 1.32 1.17 1.13 1.13 1.19 1.21 1.19 1.18 1.17 1.19 1.26 1.32 1.36 1.39 1.49 1.56 1.60
2.18 2.06 2.03 2.06 2.10 2.20 2.14 2.12 2.05 1.75 1.68 1.87 1.91 1.93 1.74 1.67 1.69 1.72 1.63 1.60 1.55 1.39 1.27 1.20 1.19 1.20 1.18 1.19 1.20 1.22 1.29 1.37 1.41 1.42 1.47 1.61 1.68 1.72
2.13 2.12 2.05 2.18 2.14 2.17 2.14 2.16 2.08 2.01 1.94 1.92 2.06 2.24 2.03 1.78 1.76 1.87 1.70 1.66 1.64 1.60 1.49 1.35 1.24 1.19 1.19 1.21 1.31 1.39 1.45 1.48 1.49 1.57 1.67 1.75 1.83 1.93
2.01 2.03 2.05 2.22 2.19 2.19 2.17 2.04 2.05 2.01 1.98 1.92 1.94 2.04 2.01 2.06 1.93 1.88 1.87 1.84 1.78 1.79 1.66 1.56 1.46 1.33 1.26 1.30 1.48 1.55 1.58 1.59 1.64 1.71 1.85 1.94 1.96 1.91
2.00 2.02 2.09 2.20 2.14 2.16 2.17 2.08 2.12 2.29 2.24 2.15 1.87 2.06 1.88 2.10 2.05 2.03 1.94 1.85 1.81 1.93 1.86 1.82 1.71 1.62 1.56 1.58 1.64 1.63 1.65 1.70 1.83 1.96 1.96 1.90 1.91 1.92
1.99 2.04 2.08 2.15 2.20 2.22 2.21 2.10 2.09 2.04 2.14 2.05 1.97 1.90 1.96 2.14 2.08 1.86 1.86 1.99 1.93 2.05 1.93 1.91 1.85 1.83 1.77 1.78 1.80 1.83 1.88 1.94 1.94 1.96 1.98 2.04 2.02 1.92
1.75 1.98 2.15 2.22 2.24 2.27 2.19 2.10 2.11 1.96 1.87 2.01 1.94 1.96 1.99 2.00 1.85 1.89 1.86 1.96 2.02 2.16 2.02 1.96 1.96 2.01 1.97 1.89 1.91 1.90 1.95 1.97 1.99 2.06 2.07 1.98 1.89 1.79
1.54 1.69 1.94 2.11 2.17 2.22 2.21 2.15 2.12 2.04 1.89 1.88 1.94 1.91 2.06 2.05 1.99 1.91 1.90 1.90 1.76 2.13 2.07 2.07 2.13 1.97 1.97 1.98 1.97 1.99 2.00 1.99 2.00 2.01 1.96 1.87 1.78 1.67
1.54 1.50 1.60 1.85 2.02 2.07 2.13 2.11 2.08 2.04 2.01 2.00 1.90 1.92 1.92 2.04 2.03 1.90 1.91 1.85 1.80 1.98 1.99 1.90 2.09 1.96 1.96 2.00 2.01 1.96 1.92 1.93 1.92 1.85 1.79 1.75 1.67 1.51
1.74 1.63 1.50 1.49 1.64 1.85 1.91 1.91 1.96 1.99 2.01 2.02 2.04 2.09 2.14 2.12 2.11 2.08 2.02 1.97 2.03 2.12 2.15 1.83 2.09 2.00 2.05 2.02 1.98 1.91 1.84 1.74 1.62 1.52 1.48 1.44 1.37 1.24
1.77 1.78 1.66 1.49 1.47 1.54 1.61 1.66 1.83 1.91 2.05 2.01 1.97 1.97 2.05 2.12 2.17 2.14 2.00 1.89 1.77 1.88 2.09 2.00 2.02 1.95 2.01 1.98 2.01 1.78 1.59 1.38 1.26 1.22 1.23 1.28 1.25 1.15
1.59 1.75 1.78 1.73 1.68 1.62 1.37 1.31 1.44 1.62 1.81 1.76 1.73 1.54 1.43 1.65 2.05 2.12 2.10 1.92 1.89 1.82 1.99 1.88 1.89 1.87 1.71 1.90 1.74 1.50 1.32 1.28 1.25 1.17 1.09 1.09 1.08 1.06
1.53 1.59 1.69 1.72 1.69 1.64 1.62 1.59 1.44 1.29 1.31 1.31 1.32 1.39 1.34 1.30 1.31 1.39 1.67 1.71 1.59 1.50 1.60 1.62 1.43 1.32 1.25 1.16 1.35 1.36 1.34 1.28 1.14 1.01 0.92 0.89 0.90 0.86
1.58 1.61 1.63 1.66 1.65 1.68 1.67 1.64 1.56 1.47 1.34 1.16 1.06 0.99 1.04 1.10 1.15 1.20 1.20 1.46 1.48 1.36 1.38 1.38 1.10 1.04 1.00 1.00 1.05 1.27 1.30 1.20 1.10 1.00 0.95 0.77 0.70 0.75
1.56 1.60 1.73 1.68 1.67 1.62 1.66 1.65 1.54 1.39 1.26 1.16 1.16 1.20 1.27 1.29 1.33 1.36 1.35 1.26 1.25 1.25 1.30 1.32 1.20 1.10 1.05 1.00 1.00 1.09 1.09 1.12 1.14 1.07 0.99 0.75 0.64 0.82
1.54 1.47 1.50 1.65 1.65 1.61 1.60 1.61 1.53 1.38 1.27 1.14 1.07 1.15 1.27 1.47 1.49 1.50 1.36 1.28 1.18 1.14 1.23 1.31 1.30 1.22 1.03 0.95 0.99 0.96 1.04 0.98 1.17 1.15 1.02 0.94 0.95 0.88
1.53 1.40 1.37 1.49 1.56 1.63 1.58 1.58 1.55 1.41 1.29 1.19 1.13 1.15 1.18 1.32 1.38 1.44 1.39 1.29 1.07 1.02 1.03 1.09 1.06 1.14 1.12 1.01 0.86 0.93 1.09 1.16 1.26 1.18 1.07 0.96 0.95 0.91
1.42 1.33 1.33 1.50 1.60 1.61 1.60 1.56 1.50 1.40 1.27 1.21 1.13 1.13 1.12 1.17 1.27 1.32 1.29 1.18 1.09 1.03 1.04 1.07 1.05 1.01 1.00 1.11 1.16 1.04 1.09 1.14 1.20 1.19 1.13 0.98 0.98 0.99
1.27 1.28 1.32 1.44 1.60 1.68 1.63 1.59 1.52 1.51 1.44 1.30 1.22 1.20 1.18 1.16 1.17 1.18 1.15 1.14 1.12 1.16 1.11 1.22 1.26 1.20 1.05 0.93 1.05 1.19 1.10 1.08 1.17 1.14 1.08 0.97 0.95 0.99
1.35 1.34 1.39 1.44 1.47 1.56 1.65 1.62 1.60 1.57 1.49 1.43 1.37 1.31 1.20 1.13 1.09 1.08 1.09 1.15 1.16 1.17 1.17 1.17 1.30 1.28 1.17 1.11 1.10 1.07 1.02 1.01 1.03 1.03 1.00 0.99 0.94 0.94
1.38 1.41 1.44 1.45 1.45 1.54 1.62 1.67 1.62 1.51 1.47 1.45 1.30 1.20 1.14 1.11 1.10 1.14 1.13 1.10 1.17 1.22 1.15 1.12 1.14 1.22 1.28 1.23 0.99 0.93 1.03 1.05 1.08 0.97 0.95 0.89 0.84 0.82
1.42 1.44 1.48 1.51 1.53 1.53 1.55 1.54 1.44 1.41 1.39 1.31 1.30 1.26 1.19 1.15 1.10 1.12 1.14 1.17 1.20 1.16 1.08 1.11 1.14 1.09 1.04 0.99 0.91 0.89 0.97 1.02 1.01 1.07 1.06 1.01 0.92 0.83
1.35 1.38 1.39 1.45 1.48 1.45 1.44 1.49 1.42 1.38 1.38 1.39 1.40 1.38 1.40 1.33 1.30 1.25 1.19 1.18 1.16 1.13 1.09 1.08 1.10 1.14 1.06 1.00 0.96 0.93 0.98 1.00 0.97 0.91 0.86 0.93 0.96 0.94
Wind_Speed
17 17 17 18 19 19 18 15 14 13 15 15 15 20 20 20 19 20 20 21 21 20 20 20 20 20 19 19 18 18 18 18 17 17 17 17 16 16
18 18 18 19 21 21 20 19 18 17 15 16 18 16 20 23 21 21 20 21 22 22 22 22 22 22 21 21 20 20 20 19 19 19 18 18 17 17
19 20 21 20 20 22 22 20 18 18 18 15 17 17 19 20 21 20 21 20 21 22 23 24 25 24 24 23 22 22 21 21 20 19 18 18 17 17
19 20 20 19 19 22 22 22 20 19 19 16 16 19 21 22 20 19 20 19 20 21 23 25 25 25 25 24 23 22 21 20 20 19 18 18 17 16
17 18 18 18 19 19 21 21 19 19 17 15 12 14 19 20 19 18 19 19 19 20 20 20 21 23 24 23 22 22 21 20 20 19 19 18 17 17
14 16 16 17 19 20 19 19 20 18 13 12 11 13 15 17 17 17 18 19 19 17 20 21 20 20 20 21 22 21 21 21 21 20 19 19 18 19
8 9 12 15 16 20 21 20 20 20 20 16 14 14 16 15 16 16 16 18 18 17 17 20 20 19 19 20 20 21 21 21 21 20 20 20 20 20
6 6 7 10 14 17 20 21 21 19 23 16 14 15 14 15 16 16 15 16 16 17 18 18 19 19 19 19 19 19 20 20 21 20 20 21 21 21
7 6 5 5 10 13 18 20 22 23 21 19 17 17 18 17 17 18 18 18 17 17 18 18 19 17 17 19 19 18 18 20 21 22 22 22 22 22
9 8 6 5 4 6 9 14 17 21 25 22 20 18 17 18 19 19 19 19 20 19 19 18 19 19 18 19 20 21 21 21 22 23 24 24 24 23
12 10 10 9 8 7 7 8 12 14 16 20 20 20 18 19 19 19 19 19 20 22 21 19 20 19 20 20 20 21 22 22 22 23 24 25 25 24
14 13 12 12 11 11 11 11 11 13 16 17 19 19 21 21 20 20 19 20 20 20 20 20 20 21 20 22 22 22 22 22 22 23 24 24 24 25
18 18 17 16 15 15 15 15 15 15 16 17 19 20 20 21 22 22 22 22 21 21 20 22 22 22 22 20 22 23 22 21 21 21 22 23 24 25
19 22 22 21 19 18 17 18 17 18 19 19 19 20 20 21 22 23 24 23 21 21 21 21 21 21 21 21 21 23 22 22 21 22 22 22 22 23
22 21 23 25 24 22 21 20 20 20 20 21 22 23 23 23 22 22 21 23 23 23 22 23 23 23 22 22 22 22 23 23 23 22 22 22 21 22
24 24 24 26 27 26 24 23 23 23 23 22 22 22 22 22 22 23 24 24 24 25 26 26 26 25 25 26 26 25 24 23 23 23 22 21 21 21
24 24 23 25 27 27 27 26 26 25 25 25 24 24 23 25 25 25 25 25 25 25 25 26 27 28 27 26 26 27 26 25 25 24 24 23 22 22
25 24 24 25 28 29 30 29 28 26 26 26 27 26 26 25 25 25 26 25 25 25 25 25 25 24 25 27 27 26 27 27 27 26 25 24 24 24
24 25 26 25 25 27 28 29 29 28 28 28 27 27 26 27 27 26 26 26 26 26 26 26 27 26 26 27 28 30 29 28 27 26 25 25 24 24
24 25 26 26 25 25 26 27 28 29 28 29 28 28 28 28 28 28 27 27 28 29 29 29 27 29 28 28 26 26 27 26 25 23 24 24 25 25
24 24 25 26 27 27 27 28 27 26 27 27 28 29 29 29 29 29 30 30 30 29 28 29 29 29 26 26 26 26 25 27 26 26 25 25 24 23
22 23 24 24 26 27 27 26 24 25 27 28 27 28 30 31 31 30 30 30 30 29 29 28 28 27 27 26 25 25 25 25 26 26 25 25 24 25
22 23 24 24 24 23 25 26 26 26 27 26 30 30 30 31 31 31 30 30 30 29 29 28 28 27 27 27 26 27 26 26 26 27 27 28 28 27
Wind_Direction
255 259 256 250 245 239 231 230 225 221 217 216 215 217 216 214 214 216 217 217 218 219 219 219 220 221 223 225 229 234 239 243 248 253 258 261 265 269
257 259 258 256 248 235 229 227 228 222 224 221 220 218 219 219 218 219 219 219 221 222 223 223 224 226 229 232 237 240 244 248 251 254 257 261 264 268
263 262 260 257 244 228 228 226 228 221 225 227 225 224 217 216 217 217 219 223 226 225 226 228 229 231 234 237 240 244 247 249 250 252 255 258 262 267
265 266 262 251 239 229 225 226 229 231 230 224 225 229 228 218 216 217 221 225 226 228 229 230 231 233 235 238 241 243 245 246 247 250 254 257 260 263
269 263 257 244 237 224 226 226 233 235 244 222 226 238 203 210 214 221 223 225 226 227 227 228 229 231 233 235 238 240 241 243 247 251 253 254 258 263
278 268 252 243 240 229 228 230 234 237 265 234 218 202 207 214 217 219 222 225 225 229 229 229 228 229 231 235 238 239 241 243 247 250 251 254 259 265
305 281 253 244 242 232 233 235 241 238 251 220 223 222 222 217 218 221 226 228 228 229 229 227 227 229 233 235 237 240 242 245 246 248 250 256 262 267
309 314 277 251 240 236 236 238 240 245 238 239 236 234 231 230 227 229 229 225 231 231 230 229 228 232 233 234 238 241 242 244 245 249 254 259 264 267
283 295 311 268 247 248 243 240 243 236 238 241 240 240 242 240 237 235 232 231 234 234 230 233 228 232 236 235 237 241 245 247 249 253 258 261 265 269
271 271 270 274 277 250 243 241 239 239 242 237 236 242 242 245 242 241 242 244 241 238 233 235 236 237 239 241 242 245 249 254 257 259 259 261 264 268
264 267 263 261 258 253 251 246 241 235 230 232 239 243 246 248 244 246 244 242 248 241 235 241 239 242 244 246 248 251 254 258 260 261 263 264 263 266
262 261 259 259 257 254 254 252 248 243 242 241 240 247 251 250 245 245 245 244 245 247 247 243 245 246 251 249 251 253 255 258 263 266 265 263 264 265
259 259 259 259 258 260 259 259 256 251 247 247 251 250 252 250 247 247 246 247 249 249 250 242 247 251 253 253 252 253 254 259 264 266 268 266 265 266
269 263 258 256 258 260 261 257 258 255 252 252 253 252 252 252 250 247 246 246 249 249 248 246 249 252 253 253 254 253 254 259 264 269 271 270 267 267
269 273 259 254 255 259 259 258 256 257 258 257 256 255 253 252 250 246 244 246 248 250 249 249 251 254 254 256 259 258 255 258 263 267 271 271 267 265
269 268 268 257 254 257 258 258 258 258 257 257 257 257 254 249 244 242 246 251 252 252 251 251 253 255 257 257 258 261 259 261 262 266 268 268 266 264
267 265 267 260 255 255 255 257 258 259 257 256 256 256 254 250 246 247 249 251 254 250 250 253 255 255 256 259 259 259 259 260 263 264 265 264 263 263
261 264 265 265 258 256 256 256 256 256 256 256 256 255 253 252 248 248 250 252 251 252 253 252 254 255 255 256 258 260 261 262 263 260 264 262 258 262
262 265 266 268 267 259 256 254 254 256 256 256 256 254 252 250 249 251 252 251 253 252 253 253 251 256 258 261 261 258 260 264 261 258 255 259 260 258
267 267 266 265 265 264 259 257 256 256 254 255 255 253 252 250 250 251 251 251 255 256 256 255 253 254 260 261 260 260 256 255 256 255 254 260 262 258
269 269 268 266 264 263 263 260 259 256 254 256 256 253 251 249 249 250 252 254 256 256 257 256 256 256 258 257 261 260 259 254 255 257 255 254 256 256
271 269 271 271 269 268 262 257 257 257 257 255 253 254 253 251 250 251 251 255 255 255 257 258 256 255 254 256 259 257 255 255 254 254 255 255 256 258
272 271 272 272 270 264 261 262 260 262 259 262 257 256 255 251 251 252 253 255 255 255 254 257 256 254 253 254 258 258 258 254 253 253 257 256 256 257